TimeEST,TemperatureF,Dew PointF,Humidity,Sea Level PressureIn,VisibilityMPH,Wind Direction,Wind SpeedMPH,Gust SpeedMPH,PrecipitationIn,Events,Conditions,WindDirDegrees,DateUTC
12:52 AM,27.0,23.0,85,30.27,10.0,NW,3.5,-,N/A,,Clear,310,2013-02-26 05:52:00
1:52 AM,26.1,21.9,84,30.26,10.0,Calm,Calm,-,N/A,,Clear,0,2013-02-26 06:52:00
2:52 AM,27.0,21.9,81,30.25,10.0,Calm,Calm,-,N/A,,Clear,0,2013-02-26 07:52:00
3:52 AM,28.0,23.0,81,30.30,10.0,WNW,3.5,-,N/A,,Clear,300,2013-02-26 08:52:00
4:52 AM,28.0,25.0,88,30.31,10.0,NW,3.5,-,N/A,,Clear,310,2013-02-26 09:52:00
5:52 AM,28.0,26.1,92,30.31,10.0,NNW,3.5,-,N/A,,Clear,340,2013-02-26 10:52:00
6:52 AM,28.9,27.0,92,30.32,10.0,Calm,Calm,-,N/A,,Clear,0,2013-02-26 11:52:00
7:52 AM,36.0,30.0,79,30.34,10.0,NNW,3.5,-,N/A,,Clear,340,2013-02-26 12:52:00
8:52 AM,39.0,28.0,65,30.35,10.0,NE,4.6,-,N/A,,Clear,50,2013-02-26 13:52:00
10:52 AM,41.0,23.0,49,30.35,10.0,East,6.9,-,N/A,,Clear,90,2013-02-26 15:52:00
11:52 AM,42.1,24.1,49,30.33,10.0,East,9.2,-,N/A,,Clear,90,2013-02-26 16:52:00
12:52 PM,42.1,24.1,49,30.34,10.0,East,10.4,-,N/A,,Clear,100,2013-02-26 17:52:00
1:52 PM,41.0,25.0,53,30.33,10.0,East,9.2,-,N/A,,Clear,80,2013-02-26 18:52:00
3:52 PM,39.0,27.0,62,30.31,10.0,East,8.1,-,N/A,,Clear,100,2013-02-26 20:52:00
4:52 PM,39.0,28.9,67,30.30,10.0,ESE,5.8,-,N/A,,Clear,110,2013-02-26 21:52:00
5:52 PM,37.9,28.0,68,30.29,10.0,East,4.6,-,N/A,,Clear,100,2013-02-26 22:52:00
6:52 PM,39.0,28.9,67,30.29,10.0,East,4.6,-,N/A,,Clear,90,2013-02-26 23:52:00
7:52 PM,39.0,30.0,70,30.27,10.0,East,6.9,-,N/A,,Clear,100,2013-02-27 00:52:00
8:52 PM,39.9,33.1,77,30.26,10.0,East,6.9,-,N/A,,Mostly Cloudy,100,2013-02-27 01:52:00
9:52 PM,39.9,34.0,79,30.23,10.0,East,9.2,-,N/A,,Overcast,90,2013-02-27 02:52:00
10:52 PM,39.9,34.0,79,30.19,10.0,East,9.2,18.4,N/A,,Overcast,90,2013-02-27 03:52:00
11:52 PM,41.0,34.0,76,30.16,10.0,East,11.5,-,N/A,,Overcast,90,2013-02-27 04:52:00